Time,TemperatureF,DewpointF,PressureIn,WindDirection,WindDirectionDegrees,WindSpeedMPH,WindSpeedGustMPH,Humidity,HourlyPrecipIn,Conditions,Clouds,dailyrainin,SolarRadiationWatts/m^2,SoftwareType,DateUTC
2013-06-07 00:12:00,82.0,48.0,-100.00,North,351,0.0,4.0,31,0.00,,,0.00,0.000000,,2013-06-07 07:12:00,
2013-06-07 00:22:00,82.0,48.0,-100.00,North,351,0.0,4.0,31,0.00,,,0.00,0.000000,,2013-06-07 07:22:00,
2013-06-07 00:32:00,82.0,48.0,-100.00,North,351,0.0,4.0,31,0.00,,,0.00,0.000000,,2013-06-07 07:32:00,
2013-06-07 00:42:00,82.0,48.0,-100.00,North,351,0.0,4.0,31,0.00,,,0.00,0.000000,,2013-06-07 07:42:00,
2013-06-07 00:52:00,80.0,49.0,-100.00,NNW,331,0.0,0.0,34,0.00,,,-99.99,0.000000,,2013-06-07 07:52:00,
2013-06-07 01:12:00,80.0,49.0,-100.00,NNW,331,0.0,0.0,34,0.00,,,-99.99,0.000000,,2013-06-07 08:12:00,
2013-06-07 01:22:00,80.0,49.0,-100.00,NNW,331,0.0,0.0,34,0.00,,,-99.99,0.000000,,2013-06-07 08:22:00,
2013-06-07 01:32:00,80.0,49.0,-100.00,NNW,331,0.0,0.0,34,0.00,,,-99.99,0.000000,,2013-06-07 08:32:00,
2013-06-07 01:42:00,80.0,49.0,-100.00,NNW,331,0.0,0.0,34,0.00,,,-99.99,0.000000,,2013-06-07 08:42:00,
2013-06-07 01:52:00,80.0,49.0,-100.00,SSE,155,0.0,5.0,34,0.00,,,0.00,0.000000,,2013-06-07 08:52:00,
2013-06-07 02:12:00,80.0,49.0,-100.00,SSE,155,0.0,5.0,34,0.00,,,0.00,0.000000,,2013-06-07 09:12:00,
2013-06-07 02:22:00,80.0,49.0,-100.00,SSE,155,0.0,5.0,34,0.00,,,0.00,0.000000,,2013-06-07 09:22:00,
2013-06-07 02:32:00,80.0,49.0,-100.00,SSE,155,0.0,5.0,34,0.00,,,0.00,0.000000,,2013-06-07 09:32:00,
2013-06-07 02:43:00,80.0,49.0,-100.00,SSE,155,0.0,5.0,34,0.00,,,0.00,0.000000,,2013-06-07 09:43:00,
2013-06-07 02:52:00,79.0,49.0,-100.00,SE,135,1.0,4.0,35,0.00,,,0.00,0.000000,,2013-06-07 09:52:00,
2013-06-07 03:12:00,79.0,49.0,-100.00,SE,135,1.0,4.0,35,0.00,,,0.00,0.000000,,2013-06-07 10:12:00,
2013-06-07 03:23:00,79.0,49.0,-100.00,SE,135,1.0,4.0,35,0.00,,,0.00,0.000000,,2013-06-07 10:23:00,
2013-06-07 03:32:00,79.0,49.0,-100.00,SE,135,1.0,4.0,35,0.00,,,0.00,0.000000,,2013-06-07 10:32:00,
2013-06-07 03:42:00,79.0,49.0,-100.00,SE,135,1.0,4.0,35,0.00,,,0.00,0.000000,,2013-06-07 10:42:00,
2013-06-07 03:52:00,78.0,47.0,-100.00,SSW,193,0.0,2.0,34,0.00,,,0.00,0.000000,,2013-06-07 10:52:00,
2013-06-07 04:12:00,78.0,47.0,-100.00,SSW,193,0.0,2.0,34,0.00,,,0.00,0.000000,,2013-06-07 11:12:00,
2013-06-07 04:22:00,78.0,47.0,-100.00,SSW,193,0.0,2.0,34,0.00,,,0.00,0.000000,,2013-06-07 11:22:00,
2013-06-07 04:32:00,78.0,47.0,-100.00,SSW,193,0.0,2.0,34,0.00,,,0.00,0.000000,,2013-06-07 11:32:00,
2013-06-07 04:42:00,78.0,47.0,-100.00,SSW,193,0.0,2.0,34,0.00,,,0.00,0.000000,,2013-06-07 11:42:00,
2013-06-07 04:52:00,77.0,47.0,-100.00,SSE,149,0.0,4.0,35,0.00,,,-99.99,0.000000,,2013-06-07 11:52:00,
2013-06-07 05:12:00,77.0,47.0,-100.00,SSE,149,0.0,4.0,35,0.00,,,-99.99,0.000000,,2013-06-07 12:12:00,
2013-06-07 05:22:00,77.0,47.0,-100.00,SSE,149,0.0,4.0,35,0.00,,,-99.99,0.000000,,2013-06-07 12:22:00,
2013-06-07 05:32:00,77.0,47.0,-100.00,SSE,149,0.0,4.0,35,0.00,,,-99.99,0.000000,,2013-06-07 12:32:00,
2013-06-07 05:42:00,77.0,47.0,-100.00,SSE,149,0.0,4.0,35,0.00,,,-99.99,0.000000,,2013-06-07 12:42:00,
2013-06-07 07:12:00,84.0,50.0,-100.00,North,4,0.0,3.0,31,-99.99,,,0.00,120.000000,,2013-06-07 14:12:00,
2013-06-07 07:22:00,84.0,50.0,-100.00,North,4,0.0,3.0,31,-99.99,,,0.00,120.000000,,2013-06-07 14:22:00,
2013-06-07 08:12:00,91.0,49.0,-100.00,ENE,75,0.0,3.0,24,0.00,,,0.00,354.000000,,2013-06-07 15:12:00,
2013-06-07 08:22:00,91.0,49.0,-100.00,ENE,75,0.0,3.0,24,0.00,,,0.00,354.000000,,2013-06-07 15:22:00,
2013-06-07 08:52:00,94.0,48.0,-100.00,NE,55,3.0,6.0,21,-99.99,,,0.00,596.000000,,2013-06-07 15:52:00,
2013-06-07 09:13:00,94.0,48.0,-100.00,NE,55,3.0,6.0,21,-99.99,,,0.00,596.000000,,2013-06-07 16:13:00,
2013-06-07 09:22:00,94.0,48.0,-100.00,NE,55,3.0,6.0,21,-99.99,,,0.00,596.000000,,2013-06-07 16:22:00,
2013-06-07 09:43:00,94.0,48.0,-100.00,NE,55,3.0,6.0,21,-99.99,,,0.00,596.000000,,2013-06-07 16:43:00,
2013-06-07 09:52:00,98.0,44.0,-100.00,NE,53,3.0,6.0,16,0.00,,,0.00,819.000000,,2013-06-07 16:52:00,
2013-06-07 10:12:00,98.0,44.0,-100.00,NE,53,3.0,6.0,16,0.00,,,0.00,819.000000,,2013-06-07 17:12:00,
2013-06-07 10:22:00,98.0,44.0,-100.00,NE,53,3.0,6.0,16,0.00,,,0.00,819.000000,,2013-06-07 17:22:00,
2013-06-07 10:32:00,98.0,44.0,-100.00,NE,53,3.0,6.0,16,0.00,,,0.00,819.000000,,2013-06-07 17:32:00,
2013-06-07 10:42:00,98.0,44.0,-100.00,NE,53,3.0,6.0,16,0.00,,,0.00,819.000000,,2013-06-07 17:42:00,
2013-06-07 10:52:00,103.0,41.0,-100.00,ENE,78,4.0,7.0,12,0.00,,,0.00,1007.000000,,2013-06-07 17:52:00,
2013-06-07 11:16:00,103.0,41.0,-100.00,ENE,78,4.0,7.0,12,0.00,,,0.00,1007.000000,,2013-06-07 18:16:00,
2013-06-07 11:23:00,103.0,41.0,-100.00,ENE,78,4.0,7.0,12,0.00,,,0.00,1007.000000,,2013-06-07 18:23:00,
2013-06-07 11:34:00,103.0,41.0,-100.00,ENE,78,4.0,7.0,12,0.00,,,0.00,1007.000000,,2013-06-07 18:34:00,
2013-06-07 11:42:00,103.0,41.0,-100.00,ENE,78,4.0,7.0,12,0.00,,,0.00,1007.000000,,2013-06-07 18:42:00,
2013-06-07 12:14:00,107.0,36.0,-100.00,East,80,3.0,8.0,9,0.00,,,0.00,1134.000000,,2013-06-07 19:14:00,
2013-06-07 12:27:00,107.0,36.0,-100.00,East,80,3.0,8.0,9,0.00,,,0.00,1134.000000,,2013-06-07 19:27:00,
2013-06-07 12:34:00,107.0,36.0,-100.00,East,80,3.0,8.0,9,0.00,,,0.00,1134.000000,,2013-06-07 19:34:00,
2013-06-07 12:44:00,107.0,36.0,-100.00,East,80,3.0,8.0,9,0.00,,,0.00,1134.000000,,2013-06-07 19:44:00,
2013-06-07 12:52:00,109.0,35.0,-100.00,SE,129,4.0,10.0,8,0.00,,,0.00,1193.000000,,2013-06-07 19:52:00,
2013-06-07 13:13:00,109.0,35.0,-100.00,SE,129,4.0,10.0,8,0.00,,,0.00,1193.000000,,2013-06-07 20:13:00,
2013-06-07 13:23:00,109.0,35.0,-100.00,SE,129,4.0,10.0,8,0.00,,,0.00,1193.000000,,2013-06-07 20:23:00,
2013-06-07 13:35:00,109.0,35.0,-100.00,SE,129,4.0,10.0,8,0.00,,,0.00,1193.000000,,2013-06-07 20:35:00,
2013-06-07 13:44:00,109.0,35.0,-100.00,SE,129,4.0,10.0,8,0.00,,,0.00,1193.000000,,2013-06-07 20:44:00,
2013-06-07 14:16:00,111.0,33.0,-100.00,SE,130,4.0,11.0,7,0.00,,,0.00,1188.000000,,2013-06-07 21:16:00,
2013-06-07 14:25:00,111.0,33.0,-100.00,SE,130,4.0,11.0,7,0.00,,,0.00,1188.000000,,2013-06-07 21:25:00,
2013-06-07 14:37:00,111.0,33.0,-100.00,SE,130,4.0,11.0,7,0.00,,,0.00,1188.000000,,2013-06-07 21:37:00,
2013-06-07 14:44:00,111.0,33.0,-100.00,SE,130,4.0,11.0,7,0.00,,,0.00,1188.000000,,2013-06-07 21:44:00,
2013-06-07 14:52:00,111.0,36.0,-100.00,ENE,58,4.0,12.0,8,0.00,,,0.00,1112.000000,,2013-06-07 21:52:00,
2013-06-07 15:18:00,111.0,36.0,-100.00,ENE,58,4.0,12.0,8,0.00,,,0.00,1112.000000,,2013-06-07 22:18:00,
2013-06-07 15:25:00,111.0,36.0,-100.00,ENE,58,4.0,12.0,8,0.00,,,0.00,1112.000000,,2013-06-07 22:25:00,
2013-06-07 15:34:00,111.0,36.0,-100.00,ENE,58,4.0,12.0,8,0.00,,,0.00,1112.000000,,2013-06-07 22:34:00,
2013-06-07 15:44:00,111.0,36.0,-100.00,ENE,58,4.0,12.0,8,0.00,,,0.00,1112.000000,,2013-06-07 22:44:00,
2013-06-07 15:52:00,111.0,39.0,-100.00,NE,54,6.0,12.0,9,0.00,,,0.00,960.000000,,2013-06-07 22:52:00,
2013-06-07 16:17:00,111.0,39.0,-100.00,NE,54,6.0,12.0,9,0.00,,,0.00,960.000000,,2013-06-07 23:17:00,
2013-06-07 16:26:00,111.0,39.0,-100.00,NE,54,6.0,12.0,9,0.00,,,0.00,960.000000,,2013-06-07 23:26:00,
2013-06-07 16:34:00,111.0,39.0,-100.00,NE,54,6.0,12.0,9,0.00,,,0.00,960.000000,,2013-06-07 23:34:00,
2013-06-07 16:45:00,111.0,39.0,-100.00,NE,54,6.0,12.0,9,0.00,,,0.00,960.000000,,2013-06-07 23:45:00,
2013-06-07 16:52:00,111.0,36.0,-100.00,ENE,78,7.0,12.0,8,0.00,,,0.00,760.000000,,2013-06-07 23:52:00,
2013-06-07 17:14:00,111.0,36.0,-100.00,ENE,78,7.0,12.0,8,0.00,,,0.00,760.000000,,2013-06-08 00:14:00,
2013-06-07 17:26:00,111.0,36.0,-100.00,ENE,78,7.0,12.0,8,0.00,,,0.00,760.000000,,2013-06-08 00:26:00,
2013-06-07 17:34:00,111.0,36.0,-100.00,ENE,78,7.0,12.0,8,0.00,,,0.00,760.000000,,2013-06-08 00:34:00,
2013-06-07 18:17:00,108.0,34.0,-100.00,East,82,5.0,13.0,8,0.00,,,0.00,129.000000,,2013-06-08 01:17:00,
2013-06-07 18:26:00,108.0,34.0,-100.00,East,82,5.0,13.0,8,0.00,,,0.00,129.000000,,2013-06-08 01:26:00,
2013-06-07 18:36:00,108.0,34.0,-100.00,East,82,5.0,13.0,8,0.00,,,0.00,129.000000,,2013-06-08 01:36:00,
2013-06-07 18:52:00,106.0,41.0,-100.00,NNW,345,7.0,17.0,11,0.00,,,0.00,53.000000,,2013-06-08 01:52:00,
2013-06-07 19:13:00,106.0,41.0,-100.00,NNW,345,7.0,17.0,11,0.00,,,0.00,53.000000,,2013-06-08 02:13:00,
2013-06-07 19:33:00,106.0,41.0,-100.00,NNW,345,7.0,17.0,11,0.00,,,0.00,53.000000,,2013-06-08 02:33:00,
2013-06-07 19:44:00,106.0,41.0,-100.00,NNW,345,7.0,17.0,11,0.00,,,0.00,53.000000,,2013-06-08 02:44:00,
2013-06-07 19:52:00,101.0,43.0,-100.00,North,351,6.0,11.0,14,0.00,,,0.00,24.000000,,2013-06-08 02:52:00,
2013-06-07 20:15:00,101.0,43.0,-100.00,North,351,6.0,11.0,14,0.00,,,0.00,24.000000,,2013-06-08 03:15:00,
2013-06-07 20:25:00,101.0,43.0,-100.00,North,351,6.0,11.0,14,0.00,,,0.00,24.000000,,2013-06-08 03:25:00,
2013-06-07 20:34:00,101.0,43.0,-100.00,North,351,6.0,11.0,14,0.00,,,0.00,24.000000,,2013-06-08 03:34:00,
2013-06-07 20:47:00,101.0,43.0,-100.00,North,351,6.0,11.0,14,0.00,,,0.00,24.000000,,2013-06-08 03:47:00,
2013-06-07 20:52:00,95.0,46.0,-100.00,SSE,154,0.0,7.0,19,0.00,,,0.00,0.000000,,2013-06-08 03:52:00,
2013-06-07 21:12:00,95.0,46.0,-100.00,SSE,154,0.0,7.0,19,0.00,,,0.00,0.000000,,2013-06-08 04:12:00,
2013-06-07 21:23:00,95.0,46.0,-100.00,SSE,154,0.0,7.0,19,0.00,,,0.00,0.000000,,2013-06-08 04:23:00,
2013-06-07 21:33:00,95.0,46.0,-100.00,SSE,154,0.0,7.0,19,0.00,,,0.00,0.000000,,2013-06-08 04:33:00,
2013-06-07 21:42:00,95.0,46.0,-100.00,SSE,154,0.0,7.0,19,0.00,,,0.00,0.000000,,2013-06-08 04:42:00,
2013-06-07 21:52:00,91.0,50.0,-100.00,SE,140,0.0,8.0,25,0.00,,,0.00,0.000000,,2013-06-08 04:52:00,
2013-06-07 22:12:00,91.0,50.0,-100.00,SE,140,0.0,8.0,25,0.00,,,0.00,0.000000,,2013-06-08 05:12:00,
2013-06-07 22:22:00,91.0,50.0,-100.00,SE,140,0.0,8.0,25,0.00,,,0.00,0.000000,,2013-06-08 05:22:00,
2013-06-07 22:32:00,91.0,50.0,-100.00,SE,140,0.0,8.0,25,0.00,,,0.00,0.000000,,2013-06-08 05:32:00,
2013-06-07 22:42:00,91.0,50.0,-100.00,SE,140,0.0,8.0,25,0.00,,,0.00,0.000000,,2013-06-08 05:42:00,
2013-06-07 22:52:00,88.0,50.0,-100.00,SE,146,0.0,4.0,27,0.00,,,0.00,0.000000,,2013-06-08 05:52:00,
2013-06-07 23:12:00,88.0,50.0,-100.00,SE,146,0.0,4.0,27,0.00,,,0.00,0.000000,,2013-06-08 06:12:00,
2013-06-07 23:22:00,88.0,50.0,-100.00,SE,146,0.0,4.0,27,0.00,,,0.00,0.000000,,2013-06-08 06:22:00,
2013-06-07 23:32:00,88.0,50.0,-100.00,SE,146,0.0,4.0,27,0.00,,,0.00,0.000000,,2013-06-08 06:32:00,
2013-06-07 23:42:00,88.0,50.0,-100.00,SE,146,0.0,4.0,27,0.00,,,0.00,0.000000,,2013-06-08 06:42:00,
2013-06-07 23:52:00,84.0,50.0,-100.00,South,179,0.0,3.0,31,0.00,,,0.00,0.000000,,2013-06-08 06:52:00,